Location: Newark
(35.2672°N, 80.7344°W)
Time: 11:21:46
(UTC+00:00)

Transit 2A Rocket - Pass Details

Date: 29 January 2020
Orbit: 591 x 912 km, 66.7° (Epoch: 25 February)

Event Time Altitude Azimuth Distance (km) Brightness Sun altitude
Rises 18:22:31 0° 338° (NNW) 3,068 7.7 35.7°
Reaches altitude 10° 18:24:48 10° 342° (NNW) 2,196 7.0 35.6°
Maximum altitude 18:29:45 57° 61° (ENE) 899 5.6 35.3°
Drops below altitude 10° 18:35:09 10° 140° (SE) 2,396 8.1 35.0°
Sets 18:37:44 0° 144° (SE) 3,374 8.8 34.8°
